This is the latest recevied weather packets stored in our database for station/object W2JGA. If no packets are shown the sender has not sent any weather packets the latest 10 day(s).
| Time | Temp. | Humidity | Pressure | Rain* | Wind** | Luminosity | Snow |
|---|---|---|---|---|---|---|---|
| 1778033736 | 21.11° C | 38% | 1013.9 hPa | 0 mm | - | 0 W/m² | - |
| 1778033433 | 20.56° C | 38% | 1013.9 hPa | 0 mm | - | 2 W/m² | - |
| 1778033130 | 21.11° C | 39% | 1013.9 hPa | 0 mm | - | 4 W/m² | - |
| 1778032827 | 21.11° C | 39% | 1013.6 hPa | 0 mm | - | 7 W/m² | - |
| 1778032525 | 21.11° C | 39% | 1013.6 hPa | 0 mm | - | 13 W/m² | - |
| 1778032221 | 21.67° C | 39% | 1013.2 hPa | 0 mm | - | 24 W/m² | - |
| 1778031919 | 21.67° C | 39% | 1013.2 hPa | 0 mm | - | 35 W/m² | - |
| 1778031615 | 21.67° C | 39% | 1013.2 hPa | 0 mm | - | 41 W/m² | - |
| 1778031313 | 21.67° C | 39% | 1013.2 hPa | 0 mm | - | 43 W/m² | - |
| 1778031010 | 21.67° C | 39% | 1013.2 hPa | 0 mm | - | 58 W/m² | - |
| 1778030705 | 21.67° C | 39% | 1013.2 hPa | 0 mm | - | 31 W/m² | - |
| 1778030403 | 21.67° C | 39% | 1013.6 hPa | 0 mm | - | 32 W/m² | - |
| 1778030100 | 22.22° C | 39% | 1013.2 hPa | 0 mm | - | 35 W/m² | - |
| 1778029796 | 22.22° C | 38% | 1013.2 hPa | 0 mm | - | 125 W/m² | - |
| 1778029496 | 22.78° C | 37% | 1012.9 hPa | 0 mm | - | 139 W/m² | - |
| 1778029191 | 22.78° C | 35% | 1012.9 hPa | 0 mm | - | 153 W/m² | - |
| 1778028889 | 23.33° C | 34% | 1012.9 hPa | 0 mm | - | 189 W/m² | - |
| 1778028584 | 22.78° C | 33% | 1012.9 hPa | 0 mm | - | 202 W/m² | - |
| 1778028282 | 23.33° C | 33% | 1012.9 hPa | 0 mm | - | 228 W/m² | - |
| 1778027978 | 23.33° C | 33% | 1012.9 hPa | 0 mm | - | 239 W/m² | - |
| 1778027675 | 23.33° C | 33% | 1012.9 hPa | 0 mm | - | 263 W/m² | - |
| 1778027371 | 23.33° C | 34% | 1012.9 hPa | 0 mm | - | 274 W/m² | - |
| 1778027067 | 23.33° C | 34% | 1012.9 hPa | 0 mm | - | 283 W/m² | - |
| 1778026763 | 23.89° C | 34% | 1012.9 hPa | 0 mm | - | 291 W/m² | - |
| 1778026460 | 23.89° C | 34% | 1012.9 hPa | 0 mm | - | 310 W/m² | - |
* Rain latest hour (hover to see other rain measurements)
** Current wind speed in m/s (hover to see current wind gust speed)